Location: Newark
(45.5000°N, 11.4167°E)
Time: 19:22:34
(UTC+00:00)

Vanguard 2 - Pass Details

Date: 27 August 2019
Orbit: 554 x 2937 km, 32.9° (Epoch: 18 October)

Event Time Altitude Azimuth Distance (km) Brightness Sun altitude
Rises 15:05:44 0° 260° (W) 3,935 12.3 29.7°
Reaches altitude 10° 15:08:38 10° 247° (WSW) 3,277 12.4 29.2°
Maximum altitude 15:15:20 26° 195° (SSW) 2,906 11.1 28.1°
Drops below altitude 10° 15:24:54 10° 147° (SSE) 4,805 11.5 26.4°
Sets 15:30:20 0° 137° (SE) 6,190 11.9 25.5°
